Zurück zum Katalog

CZ-3B DEB

AktivGTO
NORAD 42463·DEBRIS·🇨🇳 China

Gestartet Sep 4, 2010 von Xichang Satellite Launch Center

Loading…

TLE

AlterndSource: Space-Track

Epoche: Sep 14, 2026, 12:12 UTC

1 42463U 10042AE  26257.50881311 -.00000003  00000-0  27155-2 0  9991
2 42463  25.4626 345.7203 7462192 158.9375 354.4849  1.93055583  3222

Verfolge CZ-3B DEB in Echtzeit mit AllMySat

Download on the App Store